sat.trackr.live / text

‹ back to catalog

STARLINK-33727

NORAD 63719 · 2025-087Y

PAYLOAD ACTIVE UNKNOWN

§ Identity

Operator
Country
US
Launch date
2025-04-28
Launch site
AFWTR
Launch vehicle
Mass (kg)
RCS (m²)

Purposes: comms

External: N2YO · Heavens-Above · Gunter

§ Orbital elements

Epoch: 2026-05-25T05:27:16.597152Z

Period
93.85 min
Inclination
53.1589°
Eccentricity
0.0001685
Mean motion
15.34413613 rev/d
Perigee alt
461.5 km
Apogee alt
463.8 km
Semi-major
6,840.8 km
B*
5.7223e-4
RAAN
222.9308°
Arg perigee
94.2819°
Mean anomaly
265.8376°
Rev number
6,093

§ Raw data

STARLINK-337271 63719U 25087Y   26145.22727543  .00019015  00000+0  57223-3 0  99952 63719  53.1589 222.9308 0001685  94.2819 265.8376 15.34413613 60934

JSON: /api/v1/satellites/63719 · /tle

For live sub-satellite position, see the globe view (requires WebGL).

§ Visibility from observer

Set your observer location to see the next 7 days of passes ≥ 10°. The values pass through the URL so the page stays shareable.

No JS? Fill the form by hand. The geolocation button needs JavaScript.